[Iaude] MPEC T255: 2003 JV14 [a=1.63,e=0.58,i=5.5,H=21.41]
    mpec at marsden.cfa.harvard.edu 
    mpec at marsden.cfa.harvard.edu
       
    Sun Oct 15 12:52:53 EDT 2023
    
    
  
M.P.E.C. 2023-T255                             Issued 2023 October 15, 16:51 UT
     The Minor Planet Electronic Circulars contain information on unusual
         minor planets, routine data on comets and natural satellites,
         and occasional editorial announcements.  They are published
    on behalf of Division F of the International Astronomical Union by the
          Minor Planet Center, Smithsonian Astrophysical Observatory,
                          Cambridge, MA 02138, U.S.A.
			  
             Prepared using the Tamkin Foundation Computer Network
                              MPC at CFA.HARVARD.EDU
            URL https://www.minorplanetcenter.net/    ISSN 1523-6714
                                   2003 JV14                                    
                           Revision to MPEC 2003-J52                            
Additional Observations:
     K03J14V  C2021 09 07.56987403 34 11.495+08 42 35.29         23.36GVET255F52
     K03J14V  C2021 09 07.58215003 34 13.232+08 42 36.08         22.93GVET255F52
     K03J14V  C2021 09 07.60681303 34 16.701+08 42 38.16         22.49GVET255F52
     K03J14V  C2021 09 11.51823203 43 59.504+08 45 59.84         22.58GVET255F51
     K03J14V  C2021 09 11.52983803 44 01.247+08 46 00.24         22.81GVET255F51
     K03J14V  C2021 09 11.54147003 44 03.002+08 46 00.72         22.94GVET255F51
     K03J14V  C2021 10 03.54009604 56 58.207+08 04 09.65         21.26GVET255F52
     K03J14V  C2021 10 03.55092604 57 01.055+08 04 06.28         21.71GVET255F52
     K03J14V  C2021 10 03.56180604 57 03.869+08 04 02.84         21.59GVET255F52
     K03J14V  C2021 10 03.57269304 57 06.746+08 03 59.46         21.26GVET255F52
     K03J14V  C2023 09 09.55026101 37 47.923-02 09 14.07         23.51GVET255F51
     K03J14V  C2023 09 09.56507401 37 47.634-02 09 24.37         22.61GVET255F51
     K03J14V  C2023 09 21.49349001 30 45.418-04 48 04.03         22.72GVET255F51
     K03J14V  C2023 09 21.50795701 30 44.553-04 48 17.87         23.02GVET255F51
     K03J14V  C2023 10 03.50859201 14 46.120-08 27 53.88         21.62GVET255F52
     K03J14V  C2023 10 03.52272901 14 44.571-08 28 11.11         21.64GVET255F52
     K03J14V  C2023 10 03.53683001 14 42.999-08 28 28.53         21.61GVET255F52
     K03J14V  C2023 10 03.55092301 14 41.459-08 28 45.58         21.55GVET255F52
     K03J14V  C2023 10 06.40847701 09 25.315-09 28 38.36         21.28GVET255F52
     K03J14V  C2023 10 06.41874801 09 24.052-09 28 51.53         21.77GVET255F52
     K03J14V  C2023 10 06.42902601 09 22.792-09 29 04.80         21.44GVET255F52
     K03J14V  C2023 10 15.32804600 49 21.243-12 45 07.70         21.31wXET255F52
     K03J14V  C2023 10 15.34984800 49 17.789-12 45 37.04         21.47wXET255F52
     K03J14V  C2023 10 15.36077000 49 16.053-12 45 51.61         21.36wXET255F52
     K03J14V  C2023 10 15.53125300 48 48.926-12 49 38.10         20.99GVET255F52
     K03J14V  C2023 10 15.53189100 48 48.829-12 49 39.04         21.04GVET255F52
Observer details:
F51 Pan-STARRS 1, Haleakala.  Observers J. Bulger, T. Lowe, P. Minguez, A.
    Schultz, I. Smith.  Measurers K. Chambers, T. de Boer, J. Fairlamb, H.
    Gao, M. Huber, C.-C. Lin, E. Magnier, Y. Ramanjooloo, R. Wainscoat, R.
    Weryk.  1.8-m Ritchey-Chretien + CCD.
F52 Pan-STARRS 2, Haleakala.  Observers J. Bulger, T. Lowe, P. Minguez, A.
    Schultz, I. Smith.  Measurers K. Chambers, T. de Boer, J. Fairlamb, H.
    Gao, M. Huber, C.-C. Lin, E. Magnier, Y. Ramanjooloo, R. Wainscoat, R.
    Weryk.  1.8-m Ritchey-Chretien + CCD.
First and last observations above in comparison with prediction:
Residuals in seconds of arc (or two decimals in degrees), reference and Delta-T
210907 F52 0.57- 0.19-    231015 F52 0.75- 0.17-    MPO 48382   -0.59 days
Orbital elements:
2003 JV14                                                Earth MOID = 0.0678 AU
Epoch 2023 Sept. 13.0 TT = JDT 2460200.5                Veres                   
M 298.40267              (2000.0)            P               Q                  
n   0.47170509     Peri.   33.39070     -0.67134044     -0.73517684             
a   1.6343899      Node    98.97051     +0.65748435     -0.64923239             
e   0.5790513      Incl.    5.45488     +0.34207651     -0.19496750             
P   2.09           H   21.41          G   0.15           U   1                  
Residuals in seconds of arc
030510 691  0.1+  0.1+    030513 926  0.2+  0.5+    030606 291  0.6+  0.2+
030510 691  0.4+  0.0     030513 926  0.7-  0.3-    030608 291  0.3-  0.2-
030510 691  0.1+  0.1+    030513 926  0.2-  0.5-    030608 291  0.2-  0.2-
030510 176  0.6+  1.3+    030519 J95  0.2+  1.4+    030608 291  0.2-  0.1-
030510 176  0.4+  1.2+    030519 J95  1.1-  0.5+    210907 F52  0.0   0.1-
030510 176  0.4+  0.3+    030520 673  1.4-  1.0-    210907 F52  0.2+  0.2-
030510 176  0.3+  0.1-    030520 673  0.7-  0.8-    210907 F52  0.4+  0.1+
030510 176  0.1+  0.2-    030520 673  0.3+  0.3+    210911 F51  0.3-  0.1+
030511 J87  4.3+  2.8+    030520 673  1.3-  1.2-    210911 F51  0.2-  0.0
030511 J87  6.3+  4.3+    030521 673  0.0   0.1+    210911 F51  0.0   0.1+
030511 966  0.1-  0.6+    030521 673  0.5+  0.9+    211003 F52  0.0   0.1+
030511 J87  6.0+  4.4+    030521 673  0.5+  0.7+    211003 F52  0.3+  0.1+
030511 966  1.0+  0.3+    030521 673  0.3-  0.1-    211003 F52  0.2-  0.1+
030511 620  0.2+  0.1+    030521 673  1.0-  1.0-    211003 F52  0.3+  0.1+
030511 J95  1.0-  0.4+    030521 673  1.6-  0.8-    230909 F51  0.1-  0.1+
030511 J95  0.4+  0.3-    030524 246  0.3-  0.5+    230909 F51  0.1+  0.6-
030511 620  0.6+  1.3+    030524 246  0.2+  0.0     230921 F51  0.2-  0.0
030511 651  1.2-  1.2+    030524 246  1.0+  0.4-    230921 F51  0.1+  0.1-
030511 651  0.6-  0.4+    030524 246  0.7-  0.2+    231003 F52  0.1+  0.0
030511 651  0.1-  0.5+    030524 246  0.5-  0.5-    231003 F52  0.2+  0.1+
030511 291  0.5-  0.7-    030524 246  0.1-  0.2-    231003 F52  0.0   0.0
030511 291  0.4+  1.6-    030524 246  0.1+  0.7+    231003 F52  0.1+  0.2+
030511 926  0.2-  0.3+    030524 246  0.7-  0.9-    231006 F52  0.1+  0.1+
030511 926  0.2-  0.0     030528 691  0.2+  0.3+    231006 F52  0.1+  0.1+
030511 926  0.8-  0.1-    030528 691  0.3+  0.4+    231006 F52  0.3+  0.1+
030511 926  0.7-  0.4-    030528 691  0.4+  0.2+    231015 F52  0.0   0.1+
030511 926  1.6-  0.8-    030529 176  0.3+  0.4+    231015 F52  0.1+  0.1+
030511 926  0.7+  0.9-    030529 176  0.4-  0.4+    231015 F52  0.1+  0.1+
030511 926  2.6+  0.6+    030529 176  1.0-  0.4+    231015 F52  0.0   0.2+
030512 670  0.6+  0.4+    030606 291  0.7-  0.2-    231015 F52  0.1+  0.1+
030513 926  0.7-  0.1+    030606 291  0.1-  0.2+
Ephemeris:
2003 JV14                a,e,i = 1.63, 0.58, 5                   q = 0.6880
Date    TT    R. A. (2000) Decl.     Delta      r    Elong.  Phase     V
2023 09 15    01 35 33.9 -03 14 06   0.7556  1.6965   148.4    18.1    22.9
...
2023 09 30    01 20 27.6 -07 17 50   0.5954  1.5799   162.6    10.9    22.0
...
2023 10 08    01 06 13.7 -10 02 44   0.5284  1.5144   164.0    10.5    21.6
...
2023 10 14    00 52 39.4 -12 15 22   0.4875  1.4637   159.2    14.0    21.5
2023 10 15    00 50 10.5 -12 37 39   0.4814  1.4551   158.1    14.8    21.5
2023 10 16    00 47 38.0 -12 59 53   0.4755  1.4465   156.8    15.7    21.5
...
2023 10 22    00 31 20.7 -15 09 53   0.4449  1.3941   148.4    21.9    21.4
...
2023 10 30    00 07 49.0 -17 43 15   0.4146  1.3224   135.8    31.6    21.5
...
2023 11 14    23 24 15.9 -20 47 08   0.3795  1.1830   111.6    51.1    21.6
A. U. Tomatic                (C) Copyright 2023 MPC           M.P.E.C. 2023-T255
    
    
More information about the Iaude
mailing list